Location: Unspecified
(40.7945°N, 111.1337°W)
Time: 12:32:10
(UTC-06:00)

Resurs 1-4 Rocket - Pass Details

Date: 25 March 2019
Orbit: 800 x 813 km, 98.6° (Epoch: 22 October)

Event Time Altitude Azimuth Distance (km) Brightness Sun altitude
Rises 02:59:56 0° 16° (NNE) 3,330 6.1 -42.8°
Reaches altitude 10° 03:02:18 10° 19° (NNE) 2,393 5.2 -42.6°
Enters shadow 03:03:19 16° 21° (NNE) 2,002 4.7 -42.5°
